,,PA_Meas_PMT16A,,PR_Meas_QMR101_102,,RH_Meas_QMH101,,SR_Meas_QMS101,,TA_Meas_QMH101,,GenWind,,GenWind,
time,status,PA,status,PR,status,RH,status,SR,status,TA,status,DirAvg,status,SpdAvg,
2011-02-17, 00:00:04,VALID,919.467,VALID,0,VALID,96.2304,VALID,0,VALID,19.7223,VALID,143,VALID,1.23867,
2011-02-17, 00:01:04,VALID,919.453,VALID,0,VALID,96.1923,VALID,0,VALID,19.7013,VALID,143,VALID,1.04883,
2011-02-17, 00:02:04,VALID,919.433,VALID,0,VALID,96.2228,VALID,0,VALID,19.7013,VALID,128,VALID,0.722266,
2011-02-17, 00:03:04,VALID,919.439,VALID,0,VALID,96.238,VALID,0,VALID,19.7223,VALID,144,VALID,1.09727,
2011-02-17, 00:04:04,VALID,919.423,VALID,0,VALID,96.2304,VALID,0,VALID,19.7013,VALID,135,VALID,1.75,
2011-02-17, 00:05:04,VALID,919.385,VALID,0,VALID,96.238,VALID,0,VALID,19.7223,VALID,129,VALID,1.21797,
2011-02-17, 00:06:04,VALID,919.361,VALID,0,VALID,96.238,VALID,0,VALID,19.7418,VALID,127,VALID,1.37031,
2011-02-17, 00:07:04,VALID,919.36,VALID,0,VALID,96.2151,VALID,0,VALID,19.7208,VALID,126,VALID,1.28008,
2011-02-17, 00:08:04,VALID,919.328,VALID,0,VALID,96.2075,VALID,0,VALID,19.7208,VALID,125,VALID,1.15156,
2011-02-17, 00:09:04,VALID,919.322,VALID,0,VALID,96.1541,VALID,0,VALID,19.7013,VALID,125,VALID,1.0332,
2011-02-17, 00:10:04,VALID,919.301,VALID,0,VALID,96.1236,VALID,0,VALID,19.7223,VALID,125,VALID,0.966406,
2011-02-17, 00:11:04,VALID,919.306,VALID,0,VALID,96.116,VALID,0,VALID,19.7208,VALID,125,VALID,0.817187,
2011-02-17, 00:12:04,VALID,919.287,VALID,0,VALID,96.1008,VALID,0,VALID,19.7403,VALID,135,VALID,0.689453,
2011-02-17, 00:13:04,VALID,919.279,VALID,0,VALID,96.116,VALID,0,VALID,19.7598,VALID,136,VALID,1.12773,
2011-02-17, 00:14:04,VALID,919.261,VALID,0,VALID,96.0779,VALID,0,VALID,19.7598,VALID,149,VALID,0.898438,
2011-02-17, 00:15:04,VALID,919.264,VALID,0,VALID,96.0245,VALID,0,VALID,19.7793,VALID,149,VALID,0.877344,
2011-02-17, 00:16:04,VALID,919.244,VALID,0,VALID,95.9712,VALID,0,VALID,19.8393,VALID,149,VALID,0.848828,
2011-02-17, 00:17:04,VALID,919.237,VALID,0,VALID,95.9026,VALID,0,VALID,19.8198,VALID,149,VALID,0.451562,
2011-02-17, 00:18:04,VALID,919.218,VALID,0,VALID,95.8568,VALID,0,VALID,19.8588,VALID,109,VALID,0.575781,
2011-02-17, 00:19:04,VALID,919.235,VALID,0,VALID,95.7654,VALID,0,VALID,19.8783,VALID,110,VALID,0.589063,
2011-02-17, 00:20:04,VALID,919.211,VALID,0,VALID,95.6586,VALID,0,VALID,19.8768,VALID,110,VALID,0.392188,
2011-02-17, 00:21:04,VALID,919.187,VALID,0,VALID,95.5214,VALID,0,VALID,19.8768,VALID,110,VALID,0.448828,
2011-02-17, 00:22:04,VALID,919.185,VALID,0,VALID,95.3689,VALID,0,VALID,19.8978,VALID,133,VALID,0.590234,
2011-02-17, 00:23:04,VALID,919.199,VALID,0,VALID,95.1174,VALID,0,VALID,19.8783,VALID,133,VALID,0.683203,
2011-02-17, 00:24:04,VALID,919.194,VALID,0,VALID,94.9725,VALID,0,VALID,19.8588,VALID,133,VALID,0.454297,
2011-02-17, 00:25:04,VALID,919.187,VALID,0,VALID,94.8963,VALID,0,VALID,19.8198,VALID,133,VALID,0.663672,
2011-02-17, 00:26:04,VALID,919.218,VALID,0,VALID,94.7438,VALID,0,VALID,19.8198,VALID,133,VALID,0.626562,
2011-02-17, 00:27:04,VALID,919.217,VALID,0,VALID,94.7057,VALID,0,VALID,19.7808,VALID,133,VALID,0.561328,
2011-02-17, 00:28:04,VALID,919.232,VALID,0,VALID,94.7057,VALID,0,VALID,19.7613,VALID,133,VALID,0.75625,
2011-02-17, 00:29:04,VALID,919.21,VALID,0,VALID,94.7286,VALID,0,VALID,19.7418,VALID,133,VALID,0.6625,
2011-02-17, 00:30:04,VALID,919.181,VALID,0,VALID,94.6828,VALID,0,VALID,19.7223,VALID,122,VALID,0.530078,
2011-02-17, 00:31:04,VALID,919.189,VALID,0,VALID,94.7057,VALID,0,VALID,19.6833,VALID,122,VALID,0.742188,
2011-02-17, 00:32:04,VALID,919.159,VALID,0,VALID,94.7667,VALID,0,VALID,19.6623,VALID,122,VALID,0.508594,
2011-02-17, 00:33:04,VALID,919.143,VALID,0,VALID,94.8429,VALID,0,VALID,19.6623,VALID,121,VALID,0.582422,
2011-02-17, 00:34:04,VALID,919.094,VALID,0,VALID,94.8429,VALID,0.107441,VALID,19.6428,VALID,122,VALID,0.733203,
2011-02-17, 00:35:04,VALID,919.091,VALID,0,VALID,94.7819,VALID,0.107441,VALID,19.6218,VALID,122,VALID,0.598437,
2011-02-17, 00:36:04,VALID,919.051,VALID,0,VALID,94.6905,VALID,0.107441,VALID,19.6623,VALID,123,VALID,0.678125,
2011-02-17, 00:37:04,VALID,919.023,VALID,0,VALID,94.5761,VALID,0.107441,VALID,19.6608,VALID,123,VALID,0.355469,
2011-02-17, 00:38:04,VALID,919.038,VALID,0,VALID,94.3093,VALID,0,VALID,19.6818,VALID,123,VALID,0.260156,
2011-02-17, 00:39:04,VALID,919.028,VALID,0,VALID,94.1187,VALID,0,VALID,19.6818,VALID,123,VALID,0.0476562,
2011-02-17, 00:40:04,VALID,918.995,VALID,0,VALID,94.0425,VALID,0,VALID,19.6818,VALID,123,VALID,0.176563,
2011-02-17, 00:41:04,VALID,919,VALID,0,VALID,93.9434,VALID,0,VALID,19.6608,VALID,123,VALID,0.377734,
2011-02-17, 00:42:04,VALID,918.98,VALID,0,VALID,93.5164,VALID,0.107441,VALID,19.6233,VALID,123,VALID,1.36094,
2011-02-17, 00:43:04,VALID,918.993,VALID,0,VALID,93.8595,VALID,0.107441,VALID,19.5633,VALID,123,VALID,0.663672,
2011-02-17, 00:44:04,VALID,918.966,VALID,0,VALID,94.0043,VALID,0,VALID,19.5453,VALID,123,VALID,0.999219,
2011-02-17, 00:45:04,VALID,918.971,VALID,0,VALID,94.1721,VALID,0.107441,VALID,19.4658,VALID,123,VALID,0.811719,
2011-02-17, 00:46:04,VALID,918.973,VALID,0,VALID,94.6905,VALID,0.107441,VALID,19.4868,VALID,123,VALID,0.792188,
2011-02-17, 00:47:04,VALID,918.996,VALID,0,VALID,94.9344,VALID,0,VALID,19.4688,VALID,123,VALID,0.690625,
2011-02-17, 00:48:04,VALID,919.003,VALID,0,VALID,95.0335,VALID,0,VALID,19.4103,VALID,123,VALID,0.751172,
2011-02-17, 00:49:04,VALID,918.996,VALID,0,VALID,95.2165,VALID,0,VALID,19.3908,VALID,123,VALID,0.527734,
2011-02-17, 00:50:04,VALID,918.987,VALID,0,VALID,95.3842,VALID,0,VALID,19.3713,VALID,123,VALID,0.257031,
2011-02-17, 00:51:04,VALID,918.994,VALID,0,VALID,95.4528,VALID,0,VALID,19.3518,VALID,123,VALID,0.374609,
2011-02-17, 00:52:04,VALID,918.973,VALID,0,VALID,95.5748,VALID,0,VALID,19.3323,VALID,123,VALID,0.592969,
2011-02-17, 00:53:04,VALID,918.972,VALID,0,VALID,95.8035,VALID,0,VALID,19.3713,VALID,123,VALID,0.840234,
2011-02-17, 00:54:04,VALID,918.923,VALID,0,VALID,95.9102,VALID,0,VALID,19.3713,VALID,123,VALID,0.890625,
2011-02-17, 00:55:04,VALID,918.922,VALID,0,VALID,95.9407,VALID,0,VALID,19.3518,VALID,123,VALID,0.902734,
2011-02-17, 00:56:04,VALID,918.909,VALID,0,VALID,96.0169,VALID,0,VALID,19.3128,VALID,123,VALID,0.936719,
2011-02-17, 00:57:04,VALID,918.917,VALID,0,VALID,96.0093,VALID,0,VALID,19.2933,VALID,123,VALID,0.773828,
2011-02-17, 00:58:04,VALID,918.914,VALID,0,VALID,96.0779,VALID,0,VALID,19.2933,VALID,123,VALID,0.689844,
2011-02-17, 00:59:04,VALID,918.919,VALID,0,VALID,96.1694,VALID,0,VALID,19.2933,VALID,123,VALID,0.833594,
2011-02-17, 01:00:04,VALID,918.943,VALID,0,VALID,96.1618,VALID,0,VALID,19.3128,VALID,123,VALID,0.733203,
2011-02-17, 01:01:04,VALID,918.96,VALID,0,VALID,96.1389,VALID,0,VALID,19.3323,VALID,123,VALID,0.748828,
2011-02-17, 01:02:04,VALID,918.949,VALID,0,VALID,96.0093,VALID,0,VALID,19.3323,VALID,123,VALID,0.707812,
2011-02-17, 01:03:04,VALID,918.957,VALID,0,VALID,95.9026,VALID,0,VALID,19.3113,VALID,123,VALID,0.677344,
2011-02-17, 01:04:04,VALID,918.937,VALID,0,VALID,95.7272,VALID,0,VALID,19.3518,VALID,123,VALID,0.788672,
2011-02-17, 01:05:04,VALID,918.912,VALID,0,VALID,95.529,VALID,0,VALID,19.3518,VALID,123,VALID,0.816797,
2011-02-17, 01:06:04,VALID,918.873,VALID,0,VALID,95.2546,VALID,0,VALID,19.3698,VALID,123,VALID,0.551953,
2011-02-17, 01:07:04,VALID,918.881,VALID,0,VALID,94.8887,VALID,0,VALID,19.4298,VALID,123,VALID,0.501562,
2011-02-17, 01:08:04,VALID,918.871,VALID,0,VALID,94.4008,VALID,0,VALID,19.4688,VALID,123,VALID,0.600781,
2011-02-17, 01:09:04,VALID,918.876,VALID,0,VALID,93.8138,VALID,0,VALID,19.4883,VALID,123,VALID,0.707422,
2011-02-17, 01:10:04,VALID,918.842,VALID,0,VALID,93.4173,VALID,0,VALID,19.4883,VALID,123,VALID,0.76875,
2011-02-17, 01:11:04,VALID,918.835,VALID,0,VALID,93.1963,VALID,0,VALID,19.4688,VALID,123,VALID,0.698047,
2011-02-17, 01:12:04,VALID,918.879,VALID,0,VALID,93.1429,VALID,0,VALID,19.4493,VALID,123,VALID,0.799609,
2011-02-17, 01:13:04,VALID,918.843,VALID,0,VALID,93.0438,VALID,0,VALID,19.4493,VALID,123,VALID,0.8125,
2011-02-17, 01:14:04,VALID,918.854,VALID,0,VALID,93.2268,VALID,0,VALID,19.4493,VALID,123,VALID,0.742188,
2011-02-17, 01:15:04,VALID,918.835,VALID,0,VALID,93.4097,VALID,0,VALID,19.4493,VALID,123,VALID,0.744531,
2011-02-17, 01:16:04,VALID,918.856,VALID,0,VALID,93.5622,VALID,0,VALID,19.4493,VALID,123,VALID,0.686328,
2011-02-17, 01:17:04,VALID,918.809,VALID,0,VALID,93.6765,VALID,0,VALID,19.4478,VALID,123,VALID,0.848047,
2011-02-17, 01:18:04,VALID,918.809,VALID,0,VALID,93.768,VALID,0,VALID,19.4283,VALID,123,VALID,0.958594,
2011-02-17, 01:19:04,VALID,918.785,VALID,0,VALID,93.9434,VALID,0,VALID,19.3879,VALID,123,VALID,0.951563,
2011-02-17, 01:20:04,VALID,918.789,VALID,0,VALID,94.073,VALID,0.107441,VALID,19.3893,VALID,123,VALID,0.941406,
2011-02-17, 01:21:04,VALID,918.745,VALID,0,VALID,94.233,VALID,0.107441,VALID,19.3308,VALID,123,VALID,0.859766,
2011-02-17, 01:22:04,VALID,918.744,VALID,0,VALID,94.2712,VALID,0,VALID,19.3113,VALID,123,VALID,0.979688,
2011-02-17, 01:23:04,VALID,918.745,VALID,0,VALID,94.3169,VALID,0.107441,VALID,19.2918,VALID,124,VALID,0.520312,
2011-02-17, 01:24:04,VALID,918.759,VALID,0,VALID,94.2864,VALID,0.107441,VALID,19.2918,VALID,123,VALID,0.233203,
2011-02-17, 01:25:04,VALID,918.695,VALID,0,VALID,94.2559,VALID,0,VALID,19.2709,VALID,123,VALID,0.686328,
2011-02-17, 01:26:04,VALID,918.69,VALID,0,VALID,94.2178,VALID,0,VALID,19.2723,VALID,124,VALID,0.528125,
2011-02-17, 01:27:04,VALID,918.67,VALID,0,VALID,94.2635,VALID,0,VALID,19.2528,VALID,123,VALID,0.546484,
2011-02-17, 01:28:04,VALID,918.619,VALID,0,VALID,94.2864,VALID,0,VALID,19.2738,VALID,145,VALID,0.810547,
2011-02-17, 01:29:04,VALID,918.625,VALID,0,VALID,94.233,VALID,0,VALID,19.2723,VALID,145,VALID,0.8,
2011-02-17, 01:30:04,VALID,918.593,VALID,0,VALID,94.1034,VALID,0,VALID,19.2528,VALID,145,VALID,0.833203,
2011-02-17, 01:31:04,VALID,918.623,VALID,0,VALID,93.9891,VALID,0,VALID,19.2528,VALID,145,VALID,0.853125,
2011-02-17, 01:32:04,VALID,918.586,VALID,0,VALID,93.9434,VALID,0,VALID,19.2543,VALID,145,VALID,0.717578,
2011-02-17, 01:33:04,VALID,918.581,VALID,0,VALID,93.9662,VALID,0,VALID,19.2348,VALID,145,VALID,0.818359,
2011-02-17, 01:34:04,VALID,918.567,VALID,0,VALID,93.9052,VALID,0,VALID,19.2348,VALID,145,VALID,0.854297,
2011-02-17, 01:35:04,VALID,918.55,VALID,0,VALID,94.0196,VALID,0,VALID,19.2348,VALID,145,VALID,0.742578,
2011-02-17, 01:36:04,VALID,918.555,VALID,0,VALID,94.1111,VALID,0,VALID,19.2153,VALID,145,VALID,0.744141,
2011-02-17, 01:37:04,VALID,918.57,VALID,0,VALID,94.3245,VALID,0,VALID,19.2153,VALID,145,VALID,0.681641,
2011-02-17, 01:38:04,VALID,918.574,VALID,0,VALID,94.4922,VALID,0,VALID,19.2153,VALID,145,VALID,0.826563,
2011-02-17, 01:39:04,VALID,918.578,VALID,0,VALID,94.538,VALID,0,VALID,19.1763,VALID,117,VALID,0.855078,
2011-02-17, 01:40:04,VALID,918.552,VALID,0,VALID,94.6447,VALID,0,VALID,19.1373,VALID,130,VALID,1.04609,
2011-02-17, 01:41:04,VALID,918.536,VALID,0,VALID,94.7286,VALID,0,VALID,19.1178,VALID,133,VALID,1.23086,
2011-02-17, 01:42:04,VALID,918.501,VALID,0,VALID,94.7896,VALID,0,VALID,19.0803,VALID,143,VALID,0.734375,
2011-02-17, 01:43:04,VALID,918.48,VALID,0,VALID,94.8048,VALID,0,VALID,19.0593,VALID,143,VALID,1.37539,
2011-02-17, 01:44:04,VALID,918.475,VALID,0,VALID,94.9039,VALID,0,VALID,19.0788,VALID,159,VALID,0.973047,
2011-02-17, 01:45:04,VALID,918.445,VALID,0,VALID,94.8048,VALID,0,VALID,19.0983,VALID,149,VALID,0.749609,
2011-02-17, 01:46:04,VALID,918.437,VALID,0,VALID,94.7209,VALID,0,VALID,19.1178,VALID,149,VALID,0.635938,
2011-02-17, 01:47:04,VALID,918.398,VALID,0,VALID,94.6218,VALID,0,VALID,19.1164,VALID,139,VALID,0.987109,
2011-02-17, 01:48:04,VALID,918.37,VALID,0,VALID,94.5761,VALID,0,VALID,19.1359,VALID,167,VALID,0.915234,
2011-02-17, 01:49:04,VALID,918.327,VALID,0,VALID,94.3017,VALID,0.107441,VALID,19.1749,VALID,145,VALID,1.16328,
2011-02-17, 01:50:04,VALID,918.32,VALID,0,VALID,94.0577,VALID,0.107441,VALID,19.1749,VALID,149,VALID,0.794922,
2011-02-17, 01:51:04,VALID,918.285,VALID,0,VALID,93.9815,VALID,0.107441,VALID,19.1734,VALID,149,VALID,0.826953,
2011-02-17, 01:52:04,VALID,918.277,VALID,0,VALID,94.0577,VALID,0.107441,VALID,19.1749,VALID,149,VALID,1.44648,
2011-02-17, 01:53:04,VALID,918.249,VALID,0,VALID,94.073,VALID,0,VALID,19.1749,VALID,169,VALID,1.13359,
2011-02-17, 01:54:04,VALID,918.217,VALID,0,VALID,94.012,VALID,0.107441,VALID,19.1749,VALID,164,VALID,1.0125,
2011-02-17, 01:55:04,VALID,918.187,VALID,0,VALID,94.0043,VALID,0,VALID,19.1749,VALID,164,VALID,1.06875,
2011-02-17, 01:56:04,VALID,918.205,VALID,0,VALID,93.9586,VALID,0.107441,VALID,19.1749,VALID,164,VALID,0.876953,
2011-02-17, 01:57:04,VALID,918.192,VALID,0,VALID,93.951,VALID,0,VALID,19.1554,VALID,164,VALID,0.720312,
2011-02-17, 01:58:04,VALID,918.166,VALID,0,VALID,93.8595,VALID,0.107441,VALID,19.1554,VALID,152,VALID,0.756641,
2011-02-17, 01:59:04,VALID,918.167,VALID,0,VALID,93.7833,VALID,0.107441,VALID,19.1359,VALID,152,VALID,0.721094,
2011-02-17, 02:00:04,VALID,918.162,VALID,0,VALID,93.6765,VALID,0,VALID,19.1164,VALID,152,VALID,0.685156,
2011-02-17, 02:01:04,VALID,918.144,VALID,0,VALID,93.6613,VALID,0,VALID,19.1164,VALID,152,VALID,0.815625,
2011-02-17, 02:02:04,VALID,918.166,VALID,0,VALID,93.707,VALID,0,VALID,19.0983,VALID,152,VALID,1.03789,
2011-02-17, 02:03:04,VALID,918.158,VALID,0,VALID,93.89,VALID,0,VALID,19.1178,VALID,152,VALID,0.626172,
2011-02-17, 02:04:04,VALID,918.161,VALID,0,VALID,93.9738,VALID,0,VALID,19.1193,VALID,172,VALID,1.15352,
2011-02-17, 02:05:04,VALID,918.174,VALID,0,VALID,94.1263,VALID,0,VALID,19.0983,VALID,170,VALID,1.06836,
2011-02-17, 02:06:04,VALID,918.163,VALID,0,VALID,94.2254,VALID,0,VALID,19.1178,VALID,167,VALID,1.56992,
2011-02-17, 02:07:04,VALID,918.159,VALID,0,VALID,94.4313,VALID,0,VALID,19.1373,VALID,178,VALID,1.50039,
2011-02-17, 02:08:04,VALID,918.141,VALID,0,VALID,94.5151,VALID,0,VALID,19.0983,VALID,157,VALID,1.65586,
2011-02-17, 02:09:04,VALID,918.134,VALID,0,VALID,94.6752,VALID,0,VALID,19.0983,VALID,158,VALID,1.11172,
2011-02-17, 02:10:04,VALID,918.099,VALID,0,VALID,94.7743,VALID,0,VALID,19.0788,VALID,139,VALID,1.36445,
2011-02-17, 02:11:04,VALID,918.086,VALID,0,VALID,94.7743,VALID,0,VALID,19.0398,VALID,136,VALID,0.858203,
2011-02-17, 02:12:04,VALID,918.052,VALID,0,VALID,94.8277,VALID,0,VALID,19.0398,VALID,150,VALID,1.13437,
2011-02-17, 02:13:04,VALID,918.066,VALID,0,VALID,94.82,VALID,0,VALID,19.0189,VALID,156,VALID,1.18945,
2011-02-17, 02:14:04,VALID,918.013,VALID,0,VALID,94.7438,VALID,0,VALID,19.0593,VALID,196,VALID,0.510156,
2011-02-17, 02:15:04,VALID,918.005,VALID,0,VALID,94.7209,VALID,0,VALID,19.0593,VALID,174,VALID,0.620703,
2011-02-17, 02:16:04,VALID,917.969,VALID,0,VALID,94.6752,VALID,0,VALID,19.0593,VALID,174,VALID,0.873828,
2011-02-17, 02:17:04,VALID,917.964,VALID,0,VALID,94.5761,VALID,0,VALID,19.0579,VALID,174,VALID,0.514844,
2011-02-17, 02:18:04,VALID,917.982,VALID,0,VALID,94.5227,VALID,0,VALID,19.0788,VALID,174,VALID,0,
2011-02-17, 02:19:04,VALID,918.001,VALID,0,VALID,94.4313,VALID,0,VALID,19.0593,VALID,174,VALID,0.264453,
2011-02-17, 02:20:04,VALID,917.999,VALID,0,VALID,94.3169,VALID,0,VALID,19.0593,VALID,174,VALID,0.480078,
2011-02-17, 02:21:04,VALID,918.025,VALID,0,VALID,94.2864,VALID,0.107441,VALID,19.0189,VALID,174,VALID,0,
2011-02-17, 02:22:04,VALID,918.071,VALID,0,VALID,94.2788,VALID,0,VALID,18.9994,VALID,174,VALID,0,
2011-02-17, 02:23:04,VALID,918.065,VALID,0,VALID,94.2178,VALID,0,VALID,18.9994,VALID,174,VALID,0,
2011-02-17, 02:24:04,VALID,918.086,VALID,0,VALID,94.0958,VALID,0,VALID,18.9799,VALID,174,VALID,0.210547,
2011-02-17, 02:25:04,VALID,918.062,VALID,0,VALID,93.9052,VALID,0,VALID,18.9409,VALID,174,VALID,0.839063,
2011-02-17, 02:26:04,VALID,918.084,VALID,0,VALID,93.7223,VALID,0,VALID,18.8434,VALID,114,VALID,1.28359,
2011-02-17, 02:27:04,VALID,918.065,VALID,0,VALID,94.0882,VALID,0,VALID,18.8059,VALID,65,VALID,0.8,
2011-02-17, 02:28:04,VALID,918.092,VALID,0,VALID,94.5456,VALID,0,VALID,18.785,VALID,65,VALID,0.884375,
2011-02-17, 02:29:04,VALID,918.05,VALID,0,VALID,94.8124,VALID,0.107441,VALID,18.785,VALID,65,VALID,0.796875,
2011-02-17, 02:30:04,VALID,918.075,VALID,0,VALID,94.9878,VALID,0,VALID,18.8449,VALID,65,VALID,0.947656,
2011-02-17, 02:31:04,VALID,917.993,VALID,0,VALID,94.9878,VALID,0.107441,VALID,18.8434,VALID,65,VALID,0.7125,
2011-02-17, 02:32:04,VALID,917.998,VALID,0,VALID,95.0106,VALID,0.107441,VALID,18.8839,VALID,65,VALID,0.974609,
2011-02-17, 02:33:04,VALID,917.991,VALID,0,VALID,94.9039,VALID,0,VALID,18.8644,VALID,84,VALID,1.11875,
2011-02-17, 02:34:04,VALID,917.973,VALID,0,VALID,94.8048,VALID,0,VALID,18.8434,VALID,120,VALID,0.833984,
2011-02-17, 02:35:04,VALID,917.917,VALID,0,VALID,94.8582,VALID,0,VALID,18.8434,VALID,119,VALID,1.20117,
2011-02-17, 02:36:04,VALID,917.877,VALID,0,VALID,94.8048,VALID,0.107441,VALID,18.8045,VALID,115,VALID,0.814062,
2011-02-17, 02:37:04,VALID,917.887,VALID,0,VALID,94.7819,VALID,0,VALID,18.8059,VALID,115,VALID,0.739062,
2011-02-17, 02:38:04,VALID,917.844,VALID,0,VALID,94.9192,VALID,0,VALID,18.785,VALID,115,VALID,0.7125,
2011-02-17, 02:39:04,VALID,917.865,VALID,0,VALID,94.9878,VALID,0,VALID,18.7655,VALID,115,VALID,1.02813,
2011-02-17, 02:40:04,VALID,917.846,VALID,0,VALID,94.9954,VALID,0,VALID,18.7669,VALID,115,VALID,1.00742,
2011-02-17, 02:41:04,VALID,917.817,VALID,0,VALID,95.0411,VALID,0,VALID,18.7669,VALID,138,VALID,0.940234,
2011-02-17, 02:42:04,VALID,917.819,VALID,0,VALID,95.0792,VALID,0,VALID,18.7669,VALID,161,VALID,0.641797,
2011-02-17, 02:43:04,VALID,917.8,VALID,0,VALID,95.0183,VALID,0,VALID,18.746,VALID,161,VALID,0.599609,
2011-02-17, 02:44:04,VALID,917.795,VALID,0,VALID,94.9725,VALID,0,VALID,18.7655,VALID,160,VALID,0.682031,
2011-02-17, 02:45:04,VALID,917.796,VALID,0,VALID,94.9573,VALID,0,VALID,18.8059,VALID,165,VALID,0.701953,
2011-02-17, 02:46:04,VALID,917.787,VALID,0,VALID,94.8353,VALID,0,VALID,18.8059,VALID,172,VALID,1.12539,
2011-02-17, 02:47:04,VALID,917.762,VALID,0,VALID,94.7972,VALID,0,VALID,18.8059,VALID,172,VALID,0.512891,
2011-02-17, 02:48:04,VALID,917.74,VALID,0,VALID,94.7057,VALID,0,VALID,18.8254,VALID,172,VALID,0.463281,
2011-02-17, 02:49:04,VALID,917.743,VALID,0,VALID,94.5304,VALID,0,VALID,18.824,VALID,172,VALID,0.585938,
2011-02-17, 02:50:04,VALID,917.739,VALID,0,VALID,94.4084,VALID,0,VALID,18.8839,VALID,172,VALID,0.501172,
2011-02-17, 02:51:04,VALID,917.72,VALID,0,VALID,94.3245,VALID,0,VALID,18.8839,VALID,172,VALID,0.523828,
2011-02-17, 02:52:04,VALID,917.728,VALID,0,VALID,94.2635,VALID,0,VALID,18.8824,VALID,172,VALID,0.185156,
2011-02-17, 02:53:04,VALID,917.742,VALID,0,VALID,94.2788,VALID,0,VALID,18.8629,VALID,172,VALID,0.807422,
2011-02-17, 02:54:04,VALID,917.758,VALID,0,VALID,94.294,VALID,0,VALID,18.8839,VALID,172,VALID,0.696484,
2011-02-17, 02:55:04,VALID,917.776,VALID,0,VALID,94.3474,VALID,0,VALID,18.8449,VALID,172,VALID,0.417969,
2011-02-17, 02:56:04,VALID,917.764,VALID,0,VALID,94.416,VALID,0,VALID,18.8045,VALID,172,VALID,0.0429688,
2011-02-17, 02:57:04,VALID,917.782,VALID,0,VALID,94.416,VALID,0,VALID,18.8059,VALID,172,VALID,0,
2011-02-17, 02:58:04,VALID,917.775,VALID,0,VALID,94.4008,VALID,0,VALID,18.746,VALID,172,VALID,0,
2011-02-17, 02:59:04,VALID,917.753,VALID,0,VALID,94.5227,VALID,0,VALID,18.7279,VALID,172,VALID,0,
2011-02-17, 03:00:04,VALID,917.779,VALID,0,VALID,94.6066,VALID,0,VALID,18.7084,VALID,172,VALID,0.322266,
2011-02-17, 03:01:04,VALID,917.78,VALID,0,VALID,94.538,VALID,0,VALID,18.6875,VALID,172,VALID,0.947656,
2011-02-17, 03:02:04,VALID,917.816,VALID,0,VALID,94.2788,VALID,0,VALID,18.7669,VALID,172,VALID,0.778125,
2011-02-17, 03:03:04,VALID,917.798,VALID,0,VALID,93.89,VALID,0,VALID,18.7864,VALID,172,VALID,0.778516,
2011-02-17, 03:04:04,VALID,917.814,VALID,0,VALID,93.646,VALID,0,VALID,18.785,VALID,136,VALID,0.801172,
2011-02-17, 03:05:04,VALID,917.796,VALID,0,VALID,93.4021,VALID,0.107441,VALID,18.785,VALID,136,VALID,0.526953,
2011-02-17, 03:06:04,VALID,917.788,VALID,0,VALID,93.3106,VALID,0,VALID,18.785,VALID,136,VALID,0.376953,
2011-02-17, 03:07:04,VALID,917.79,VALID,0,VALID,93.4021,VALID,0.107441,VALID,18.7864,VALID,136,VALID,0.328516,
2011-02-17, 03:08:04,VALID,917.745,VALID,0,VALID,93.4097,VALID,0,VALID,18.7864,VALID,136,VALID,0.258594,
2011-02-17, 03:09:04,VALID,917.746,VALID,0,VALID,93.4173,VALID,0,VALID,18.746,VALID,136,VALID,0.601953,
2011-02-17, 03:10:04,VALID,917.729,VALID,0,VALID,93.4707,VALID,0,VALID,18.7864,VALID,136,VALID,0.410547,
2011-02-17, 03:11:04,VALID,917.699,VALID,0,VALID,93.3868,VALID,0,VALID,18.746,VALID,136,VALID,0.314844,
2011-02-17, 03:12:04,VALID,917.661,VALID,0,VALID,93.2649,VALID,0,VALID,18.746,VALID,136,VALID,0.429297,
2011-02-17, 03:13:04,VALID,917.625,VALID,0,VALID,93.3945,VALID,0.107441,VALID,18.746,VALID,136,VALID,0.622266,
2011-02-17, 03:14:04,VALID,917.669,VALID,0,VALID,93.2344,VALID,0,VALID,18.746,VALID,136,VALID,0.449609,
2011-02-17, 03:15:04,VALID,917.647,VALID,0,VALID,93.2801,VALID,0,VALID,18.7474,VALID,136,VALID,0.569141,
2011-02-17, 03:16:04,VALID,917.641,VALID,0,VALID,93.303,VALID,0.107441,VALID,18.7265,VALID,136,VALID,0.454688,
2011-02-17, 03:17:04,VALID,917.652,VALID,0,VALID,93.2496,VALID,0,VALID,18.7265,VALID,136,VALID,0.282031,
2011-02-17, 03:18:04,VALID,917.634,VALID,0,VALID,93.2649,VALID,0,VALID,18.7265,VALID,136,VALID,0,
2011-02-17, 03:19:04,VALID,917.653,VALID,0,VALID,93.2191,VALID,0,VALID,18.7279,VALID,136,VALID,0.226563,
2011-02-17, 03:20:04,VALID,917.605,VALID,0,VALID,93.2115,VALID,0,VALID,18.7084,VALID,136,VALID,0.336328,
2011-02-17, 03:21:04,VALID,917.61,VALID,0,VALID,93.1429,VALID,0.107441,VALID,18.6875,VALID,136,VALID,0.378906,
2011-02-17, 03:22:04,VALID,917.561,VALID,0,VALID,93.2115,VALID,0,VALID,18.6889,VALID,136,VALID,0.392969,
2011-02-17, 03:23:04,VALID,917.543,VALID,0,VALID,93.303,VALID,0.107441,VALID,18.7084,VALID,136,VALID,0.0871094,
2011-02-17, 03:24:04,VALID,917.565,VALID,0,VALID,93.4097,VALID,0,VALID,18.6889,VALID,136,VALID,0.0609375,
2011-02-17, 03:25:04,VALID,917.512,VALID,0,VALID,93.5622,VALID,0,VALID,18.6875,VALID,136,VALID,0,
2011-02-17, 03:26:04,VALID,917.546,VALID,0,VALID,93.6232,VALID,0,VALID,18.7084,VALID,136,VALID,0.0199219,
2011-02-17, 03:27:04,VALID,917.512,VALID,0,VALID,93.6384,VALID,0,VALID,18.6889,VALID,136,VALID,0.462891,
2011-02-17, 03:28:04,VALID,917.529,VALID,0,VALID,93.6994,VALID,0,VALID,18.668,VALID,136,VALID,0.371484,
2011-02-17, 03:29:04,VALID,917.551,VALID,0,VALID,93.6689,VALID,0.107441,VALID,18.668,VALID,136,VALID,0.3375,
2011-02-17, 03:30:04,VALID,917.526,VALID,0,VALID,93.5469,VALID,0,VALID,18.6889,VALID,136,VALID,0.3375,
2011-02-17, 03:31:04,VALID,917.535,VALID,0,VALID,93.4555,VALID,0,VALID,18.668,VALID,136,VALID,0.0480469,
2011-02-17, 03:32:04,VALID,917.539,VALID,0,VALID,93.364,VALID,0,VALID,18.6694,VALID,136,VALID,0,
2011-02-17, 03:33:04,VALID,917.525,VALID,0,VALID,93.3259,VALID,0,VALID,18.6499,VALID,136,VALID,0.223047,
2011-02-17, 03:34:04,VALID,917.514,VALID,0,VALID,93.4783,VALID,0,VALID,18.6109,VALID,136,VALID,0,
2011-02-17, 03:35:04,VALID,917.551,VALID,0,VALID,93.6079,VALID,0,VALID,18.6319,VALID,136,VALID,0.194531,
2011-02-17, 03:36:04,VALID,917.593,VALID,0,VALID,93.6918,VALID,0,VALID,18.6109,VALID,136,VALID,0,
2011-02-17, 03:37:04,VALID,917.614,VALID,0,VALID,93.5698,VALID,0,VALID,18.572,VALID,136,VALID,0,
2011-02-17, 03:38:04,VALID,917.609,VALID,0,VALID,93.2039,VALID,0,VALID,18.533,VALID,136,VALID,0,
2011-02-17, 03:39:04,VALID,917.634,VALID,0,VALID,92.6169,VALID,0,VALID,18.4355,VALID,136,VALID,0.354688,
2011-02-17, 03:40:04,VALID,917.598,VALID,0,VALID,92.6245,VALID,0,VALID,18.3172,VALID,136,VALID,0.489453,
2011-02-17, 03:41:04,VALID,917.623,VALID,0,VALID,93.2572,VALID,0,VALID,18.2615,VALID,136,VALID,0.578516,
2011-02-17, 03:42:04,VALID,917.648,VALID,0,VALID,93.768,VALID,0,VALID,18.1626,VALID,136,VALID,0.554297,
2011-02-17, 03:43:04,VALID,917.664,VALID,0,VALID,93.9662,VALID,0,VALID,18.0846,VALID,136,VALID,0.527734,